Date,TemperatureHighF,TemperatureAvgF,TemperatureLowF,DewpointHighF,DewpointAvgF,DewpointLowF,HumidityHigh,HumidityAvg,HumidityLow,PressureMaxIn,PressureMinIn,WindSpeedMaxMPH,WindSpeedAvgMPH,GustSpeedMaxMPH,PrecipitationSumIn
2013-1-1,24,20,13,-100,-100,-100,0,0,100,0.00,40.00,0,-999,0,0.00
2013-1-2,31,20,10,-100,-100,-100,0,0,100,0.00,40.00,0,-999,0,0.00
2013-1-3,34,24,17,-100,-100,-100,0,0,100,0.00,40.00,0,-999,0,0.00
2013-1-4,42,28,14,-100,-100,-100,0,0,100,0.00,40.00,0,-999,0,0.00
2013-1-5,45,36,26,-100,-100,-100,0,0,100,0.00,40.00,0,-999,0,0.00
2013-1-6,49,33,20,-100,-100,-100,0,0,100,0.00,40.00,0,-999,0,0.00
2013-1-7,53,35,25,-100,-100,-100,0,0,100,0.00,40.00,0,-999,0,0.00
2013-1-8,52,38,29,-100,-100,-100,0,0,100,0.00,40.00,0,-999,0,0.00
2013-1-9,52,38,26,-100,-100,-100,0,0,100,0.00,40.00,0,-999,0,0.00
2013-1-10,48,44,40,-100,-100,-100,0,0,100,0.00,40.00,0,-999,0,0.00
2013-1-11,58,51,43,-100,-100,-100,0,0,100,0.00,40.00,0,-999,0,0.00
2013-1-12,35,26,20,-100,-100,-100,0,0,100,0.00,40.00,0,-999,0,0.00
2013-1-13,25,17,10,-100,-100,-100,0,0,100,0.00,40.00,0,-999,0,0.00
2013-1-14,31,18,11,-100,-100,-100,0,0,100,0.00,40.00,0,-999,0,0.00
2013-1-15,31,20,15,-100,-100,-100,0,0,100,0.00,40.00,0,-999,0,0.00
2013-1-16,48,28,15,-100,-100,-100,0,0,100,0.00,40.00,0,-999,0,0.00
2013-1-17,53,39,26,-100,-100,-100,0,0,100,0.00,40.00,0,-999,0,0.00
2013-1-18,56,39,27,-100,-100,-100,0,0,100,0.00,40.00,0,-999,0,0.00
2013-1-19,62,47,32,-100,-100,-100,0,0,100,0.00,40.00,0,-999,0,0.00
2013-1-20,49,36,27,-100,-100,-100,0,0,100,0.00,40.00,0,-999,0,0.00
2013-1-21,33,23,16,-100,-100,-100,0,0,100,0.00,40.00,0,-999,0,0.00
2013-1-22,44,23,14,-100,-100,-100,0,0,100,0.00,40.00,0,-999,0,0.00
2013-1-23,55,35,18,-100,-100,-100,0,0,100,0.00,40.00,0,-999,0,0.00
2013-1-24,28,23,20,-100,-100,-100,0,0,100,0.00,40.00,0,-999,0,0.00
2013-1-25,46,32,20,-100,-100,-100,0,0,100,0.00,40.00,0,-999,0,0.00
2013-1-26,57,43,30,-100,-100,-100,0,0,100,0.00,40.00,0,-999,0,0.00
2013-1-27,65,51,42,-100,-100,-100,0,0,100,0.00,40.00,0,-999,0,0.00
2013-1-28,71,60,51,-100,-100,-100,0,0,100,0.00,40.00,0,-999,0,0.00
2013-1-29,64,44,35,-100,-100,-100,0,0,100,0.00,40.00,0,-999,0,0.00
2013-1-30,32,27,18,-100,-100,-100,0,0,100,0.00,40.00,0,-999,0,0.00
2013-1-31,27,22,14,-100,-100,-100,0,0,100,0.00,40.00,0,-999,0,0.00
2013-2-1,32,21,9,-100,-100,-100,0,0,100,0.00,40.00,0,-999,0,0.00
2013-2-2,55,41,24,-100,-100,-100,0,0,100,0.00,40.00,0,-999,0,0.00
2013-2-3,55,43,26,-100,-100,-100,0,0,100,0.00,40.00,0,-999,0,0.00
2013-2-4,55,44,34,-100,-100,-100,0,0,100,0.00,40.00,0,-999,0,0.00
2013-2-5,64,39,24,-100,-100,-100,0,0,100,0.00,40.00,0,-999,0,0.00
2013-2-6,57,48,36,-100,-100,-100,0,0,100,0.00,40.00,0,-999,0,0.00
2013-2-7,53,49,36,-100,-100,-100,0,0,100,0.00,40.00,0,-999,0,0.00
2013-2-8,44,34,25,-100,-100,-100,0,0,100,0.00,40.00,0,-999,0,0.00
2013-2-9,49,39,32,-100,-100,-100,0,0,100,0.00,40.00,0,-999,0,0.00
2013-2-10,48,41,34,-100,-100,-100,0,0,100,0.00,40.00,0,-999,0,0.00
2013-2-11,46,34,26,-100,-100,-100,0,0,100,0.00,40.00,0,-999,0,0.00
2013-2-12,37,33,27,-100,-100,-100,0,0,100,0.00,40.00,0,-999,0,0.00
2013-2-13,55,35,20,-100,-100,-100,0,0,100,0.00,40.00,0,-999,0,0.00
2013-2-14,49,38,26,-100,-100,-100,0,0,100,0.00,40.00,0,-999,0,0.00
2013-2-15,38,28,21,-100,-100,-100,0,0,100,0.00,40.00,0,-999,0,0.00
2013-2-16,43,30,15,-100,-100,-100,0,0,100,0.00,40.00,0,-999,0,0.00
2013-2-17,65,44,27,-100,-100,-100,0,0,100,0.00,40.00,0,-999,0,0.00
2013-2-18,55,46,28,-100,-100,-100,0,0,100,0.00,40.00,0,-999,0,0.00
2013-2-19,44,30,20,-100,-100,-100,0,0,100,0.00,40.00,0,-999,0,0.00
2013-2-20,30,27,24,-100,-100,-100,0,0,100,0.00,40.00,0,-999,0,0.00
2013-2-21,25,22,10,-100,-100,-100,0,0,100,0.00,40.00,0,-999,0,0.00
2013-2-22,22,13,3,-100,-100,-100,0,0,100,0.00,40.00,0,-999,0,0.00
2013-2-23,30,18,5,-100,-100,-100,0,0,100,0.00,40.00,0,-999,0,0.00
2013-2-24,42,32,22,-100,-100,-100,0,0,100,0.00,40.00,0,-999,0,0.00
2013-2-25,37,32,29,-100,-100,-100,0,0,100,0.00,40.00,0,-999,0,0.00
2013-2-26,30,27,24,-100,-100,-100,0,0,100,0.00,40.00,0,-999,0,0.00
2013-2-27,32,27,24,-100,-100,-100,0,0,100,0.00,40.00,0,-999,0,0.00
2013-2-28,31,28,21,-100,-100,-100,0,0,100,0.00,40.00,0,-999,0,0.00
2013-3-1,31,28,24,-100,-100,-100,0,0,100,0.00,40.00,0,-999,0,0.00
2013-3-2,36,24,15,-100,-100,-100,0,0,100,0.00,40.00,0,-999,0,0.00
2013-3-3,51,39,25,-100,-100,-100,0,0,100,0.00,40.00,0,-999,0,0.00
2013-3-4,49,42,34,-100,-100,-100,0,0,100,0.00,40.00,0,-999,0,0.00
2013-3-5,40,32,26,-100,-100,-100,0,0,100,0.00,40.00,0,-999,0,0.00
2013-3-6,44,32,20,-100,-100,-100,0,0,100,0.00,40.00,0,-999,0,0.00
2013-3-7,63,48,31,-100,-100,-100,0,0,100,0.00,40.00,0,-999,0,0.00
2013-3-8,57,50,44,-100,-100,-100,0,0,100,0.00,40.00,0,-999,0,0.00
2013-3-9,57,53,52,-100,-100,-100,0,0,100,0.00,40.00,0,-999,0,0.00
2013-3-10,38,30,27,-100,-100,-100,0,0,100,0.00,40.00,0,-999,0,0.00
2013-3-11,46,34,21,-100,-100,-100,0,0,100,0.00,40.00,0,-999,0,0.00
2013-3-12,51,41,36,-100,-100,-100,0,0,100,0.00,40.00,0,-999,0,0.00
2013-3-13,55,40,24,-100,-100,-100,0,0,100,0.00,40.00,0,-999,0,0.00
2013-3-14,73,52,33,-100,-100,-100,0,0,100,0.00,40.00,0,-999,0,0.00
2013-3-15,76,60,43,-100,-100,-100,0,0,100,0.00,40.00,0,-999,0,0.00
2013-3-16,51,46,39,-100,-100,-100,0,0,100,0.00,40.00,0,-999,0,0.00
2013-3-17,39,35,33,-100,-100,-100,0,0,100,0.00,40.00,0,-999,0,0.00
2013-3-18,55,44,36,-100,-100,-100,0,0,100,0.00,40.00,0,-999,0,0.00
2013-3-19,53,43,29,-100,-100,-100,0,0,100,0.00,40.00,0,-999,0,0.00
2013-3-20,45,38,29,-100,-100,-100,0,0,100,0.00,40.00,0,-999,0,0.00
2013-3-21,47,38,34,-100,-100,-100,0,0,100,0.00,40.00,0,-999,0,0.00
2013-3-22,46,36,30,-100,-100,-100,0,0,100,0.00,40.00,0,-999,0,0.00
2013-3-23,34,32,30,-100,-100,-100,0,0,100,0.00,40.00,0,-999,0,0.00
2013-3-24,30,25,22,-100,-100,-100,0,0,100,0.00,40.00,0,-999,0,0.00
2013-3-25,31,25,21,-100,-100,-100,0,0,100,0.00,40.00,0,-999,0,0.00
2013-3-26,46,30,17,-100,-100,-100,0,0,100,0.00,40.00,0,-999,0,0.00
2013-3-27,62,47,32,-100,-100,-100,0,0,100,0.00,40.00,0,-999,0,0.00
2013-3-28,67,50,33,-100,-100,-100,0,0,100,0.00,40.00,0,-999,0,0.00
2013-3-29,72,59,45,-100,-100,-100,0,0,100,0.00,40.00,0,-999,0,0.00
2013-3-30,70,61,52,-100,-100,-100,0,0,100,0.00,40.00,0,-999,0,0.00
2013-3-31,65,52,43,-100,-100,-100,0,0,100,0.00,40.00,0,-999,0,0.00
2013-4-1,46,38,34,-100,-100,-100,0,0,100,0.00,40.00,0,-999,0,0.00
2013-4-2,38,35,32,-100,-100,-100,0,0,100,0.00,40.00,0,-999,0,0.00
2013-4-3,37,36,34,-100,-100,-100,0,0,100,0.00,40.00,0,-999,0,0.00
2013-4-4,56,41,34,-100,-100,-100,0,0,100,0.00,40.00,0,-999,0,0.00
2013-4-5,64,54,32,-100,-100,-100,0,0,100,0.00,40.00,0,-999,0,0.00
2013-4-6,74,59,52,-100,-100,-100,0,0,100,0.00,40.00,0,-999,0,0.00
2013-4-7,68,58,51,-100,-100,-100,0,0,100,0.00,40.00,0,-999,0,0.00
2013-4-8,68,63,56,-100,-100,-100,0,0,100,0.00,40.00,0,-999,0,0.00
2013-4-9,70,60,34,-100,-100,-100,0,0,100,0.00,40.00,0,-999,0,0.00
2013-4-10,31,30,29,-100,-100,-100,0,0,100,0.00,40.00,0,-999,0,0.00
2013-4-11,52,39,25,-100,-100,-100,0,0,100,0.00,40.00,0,-999,0,0.00
2013-4-12,55,42,29,-100,-100,-100,0,0,100,0.00,40.00,0,-999,0,0.00
2013-4-13,70,55,36,-100,-100,-100,0,0,100,0.00,40.00,0,-999,0,0.00
2013-4-14,69,61,56,-100,-100,-100,0,0,100,0.00,40.00,0,-999,0,0.00
2013-4-15,55,51,48,-100,-100,-100,0,0,100,0.00,40.00,0,-999,0,0.00
2013-4-16,47,44,42,-100,-100,-100,0,0,100,0.00,40.00,0,-999,0,0.00
2013-4-17,45,43,41,-100,-100,-100,0,0,100,0.00,40.00,0,-999,0,0.00
2013-4-18,40,36,32,-100,-100,-100,0,0,100,0.00,40.00,0,-999,0,0.00
2013-4-19,57,38,27,-100,-100,-100,0,0,100,0.00,40.00,0,-999,0,0.00
2013-4-20,60,49,38,-100,-100,-100,0,0,100,0.00,40.00,0,-999,0,0.00
2013-4-21,67,56,50,-100,-100,-100,0,0,100,0.00,40.00,0,-999,0,0.00
2013-4-22,68,56,50,-100,-100,-100,0,0,100,0.00,40.00,0,-999,0,0.00
2013-4-23,37,32,29,-100,-100,-100,0,0,100,0.00,40.00,0,-999,0,0.00
2013-4-24,57,42,24,-100,-100,-100,0,0,100,0.00,40.00,0,-999,0,0.00
2013-4-25,67,51,32,-100,-100,-100,0,0,100,0.00,40.00,0,-999,0,0.00
2013-4-26,55,51,49,-100,-100,-100,0,0,100,0.00,40.00,0,-999,0,0.00
2013-4-27,59,52,48,-100,-100,-100,0,0,100,0.00,40.00,0,-999,0,0.00
2013-4-28,76,58,43,-100,-100,-100,0,0,100,0.00,40.00,0,-999,0,0.00
2013-4-29,81,70,53,-100,-100,-100,0,0,100,0.00,40.00,0,-999,0,0.00
2013-4-30,81,73,65,-100,-100,-100,0,0,100,0.00,40.00,0,-999,0,0.00
2013-5-1,65,57,39,-100,-100,-100,0,0,100,0.00,40.00,0,-999,0,0.00
2013-5-2,46,38,33,-100,-100,-100,0,0,100,0.00,40.00,0,-999,0,0.00
2013-5-3,54,42,33,-100,-100,-100,0,0,100,0.00,40.00,0,-999,0,0.00
2013-5-4,46,42,38,-100,-100,-100,0,0,100,0.00,40.00,0,-999,0,0.00
2013-5-5,58,48,41,-100,-100,-100,0,0,100,0.00,40.00,0,-999,0,0.00
2013-5-6,65,52,39,-100,-100,-100,0,0,100,0.00,40.00,0,-999,0,0.00
2013-5-7,68,57,46,-100,-100,-100,0,0,100,0.00,40.00,0,-999,0,0.00
2013-5-8,74,61,56,-100,-100,-100,0,0,100,0.00,40.00,0,-999,0,0.00
2013-5-9,70,61,55,-100,-100,-100,0,0,100,0.00,40.00,0,-999,0,0.00
2013-5-10,67,59,52,-100,-100,-100,0,0,100,0.00,40.00,0,-999,0,0.00
2013-5-11,66,57,48,-100,-100,-100,0,0,100,0.00,40.00,0,-999,0,0.00
2013-5-12,68,59,41,-100,-100,-100,0,0,100,0.00,40.00,0,-999,0,0.00
2013-5-13,79,62,48,-100,-100,-100,0,0,100,0.00,40.00,0,-999,0,0.00
2013-5-14,83,70,60,-100,-100,-100,0,0,100,0.00,40.00,0,-999,0,0.00
2013-5-15,74,66,60,-100,-100,-100,0,0,100,0.00,40.00,0,-999,0,0.00
2013-5-16,74,65,60,-100,-100,-100,0,0,100,0.00,40.00,0,-999,0,0.00
2013-5-17,78,67,58,-100,-100,-100,0,0,100,0.00,40.00,0,-999,0,0.00
2013-5-18,79,73,67,-100,-100,-100,0,0,100,0.00,40.00,0,-999,0,0.00
2013-5-19,77,70,62,-100,-100,-100,0,0,100,0.00,40.00,0,-999,0,0.00
2013-5-20,77,66,57,-100,-100,-100,0,0,100,0.00,40.00,0,-999,0,0.00
2013-5-21,68,62,53,-100,-100,-100,0,0,100,0.00,40.00,0,-999,0,0.00
2013-5-22,73,61,51,-100,-100,-100,0,0,100,0.00,40.00,0,-999,0,0.00
2013-5-23,69,62,56,-100,-100,-100,0,0,100,0.00,40.00,0,-999,0,0.00
2013-5-24,73,66,55,-100,-100,-100,0,0,100,0.00,40.00,0,-999,0,0.00
2013-5-25,78,70,65,-100,-100,-100,0,0,100,0.00,40.00,0,-999,0,0.00
2013-5-26,79,69,64,-100,-100,-100,0,0,100,0.00,40.00,0,-999,0,0.00
2013-5-27,78,72,69,-100,-100,-100,0,0,100,0.00,40.00,0,-999,0,0.00
2013-5-28,79,72,68,-100,-100,-100,0,0,100,0.00,40.00,0,-999,0,0.00
2013-5-29,77,69,61,-100,-100,-100,0,0,100,0.00,40.00,0,-999,0,0.00
2013-5-30,74,66,56,-100,-100,-100,0,0,100,0.00,40.00,0,-999,0,0.00
2013-5-31,77,70,67,-100,-100,-100,0,0,100,0.00,40.00,0,-999,0,0.00
2013-6-1,70,64,58,-100,-100,-100,0,0,100,0.00,40.00,0,-999,0,0.00
2013-6-2,69,61,53,-100,-100,-100,0,0,100,0.00,40.00,0,-999,0,0.00
2013-6-3,76,64,52,-100,-100,-100,0,0,100,0.00,40.00,0,-999,0,0.00
2013-6-4,80,71,67,-100,-100,-100,0,0,100,0.00,40.00,0,-999,0,0.00
2013-6-5,72,67,62,-100,-100,-100,0,0,100,0.00,40.00,0,-999,0,0.00
2013-6-6,73,65,57,-100,-100,-100,0,0,100,0.00,40.00,0,-999,0,0.00
2013-6-7,75,65,55,-100,-100,-100,0,0,100,0.00,40.00,0,-999,0,0.00
2013-6-8,78,68,59,-100,-100,-100,0,0,100,0.00,40.00,0,-999,0,0.00
2013-6-9,81,68,59,-100,-100,-100,0,0,100,0.00,40.00,0,-999,0,0.00
2013-6-10,89,79,63,-100,-100,-100,0,0,100,0.00,40.00,0,-999,0,0.00
2013-6-11,89,79,69,-100,-100,-100,0,0,100,0.00,40.00,0,-999,0,0.00
2013-6-12,90,79,72,-100,-100,-100,0,0,100,0.00,40.00,0,-999,0,0.00
2013-6-13,83,77,67,-100,-100,-100,0,0,100,0.00,40.00,0,-999,0,0.00
2013-6-14,90,80,68,-100,-100,-100,0,0,100,0.00,40.00,0,-999,0,0.00
2013-6-15,82,78,72,-100,-100,-100,0,0,100,0.00,40.00,0,-999,0,0.00
2013-6-16,86,76,68,-100,-100,-100,0,0,100,0.00,40.00,0,-999,0,0.00
2013-6-17,79,73,65,-100,-100,-100,0,0,100,0.00,40.00,0,-999,0,0.00
2013-6-18,83,73,63,-100,-100,-100,0,0,100,0.00,40.00,0,-999,0,0.00
2013-6-19,81,73,67,-100,-100,-100,0,0,100,0.00,40.00,0,-999,0,0.00
2013-6-20,86,77,70,-100,-100,-100,0,0,100,0.00,40.00,0,-999,0,0.00
2013-6-22,87,84,77,-100,-100,-100,0,0,100,0.00,40.00,0,-999,0,0.00
2013-6-23,87,79,75,-100,-100,-100,0,0,100,0.00,40.00,0,-999,0,0.00
2013-6-24,85,80,74,-100,-100,-100,0,0,100,0.00,40.00,0,-999,0,0.00
2013-6-25,87,83,75,-100,-100,-100,0,0,100,0.00,40.00,0,-999,0,0.00
2013-6-26,93,80,72,-100,-100,-100,0,0,100,0.00,40.00,0,-999,0,0.00
2013-6-27,91,78,69,-100,-100,-100,0,0,100,0.00,40.00,0,-999,0,0.00
2013-6-28,87,80,69,-100,-100,-100,0,0,100,0.00,40.00,0,-999,0,0.00
2013-6-29,86,79,68,-100,-100,-100,0,0,100,0.00,40.00,0,-999,0,0.00
2013-6-30,81,72,63,-100,-100,-100,0,0,100,0.00,40.00,0,-999,0,0.00
2013-7-1,79,72,61,-100,-100,-100,0,0,100,0.00,40.00,0,-999,0,0.00
2013-7-2,82,74,60,-100,-100,-100,0,0,100,0.00,40.00,0,-999,0,0.00
2013-7-3,82,68,58,-100,-100,-100,0,0,100,0.00,40.00,0,-999,0,0.00
2013-7-4,84,72,61,-100,-100,-100,0,0,100,0.00,40.00,0,-999,0,0.00
2013-7-5,84,77,64,-100,-100,-100,0,0,100,0.00,40.00,0,-999,0,0.00
2013-7-6,76,74,72,-100,-100,-100,0,0,100,0.00,40.00,0,-999,0,0.00
2013-7-7,87,78,72,-100,-100,-100,0,0,100,0.00,40.00,0,-999,0,0.00
2013-7-8,87,77,74,-100,-100,-100,0,0,100,0.00,40.00,0,-999,0,0.00
2013-7-9,91,83,74,-100,-100,-100,0,0,100,0.00,40.00,0,-999,0,0.00
2013-7-10,89,82,75,-100,-100,-100,0,0,100,0.00,40.00,0,-999,0,0.00
2013-7-11,88,80,75,-100,-100,-100,0,0,100,0.00,40.00,0,-999,0,0.00
2013-7-12,91,79,72,-100,-100,-100,0,0,100,0.00,40.00,0,-999,0,0.00
2013-7-13,91,83,74,-100,-100,-100,0,0,100,0.00,40.00,0,-999,0,0.00
2013-7-14,79,72,67,-100,-100,-100,0,0,100,0.00,40.00,0,-999,0,0.00
2013-7-15,75,70,64,-100,-100,-100,0,0,100,0.00,40.00,0,-999,0,0.00
2013-7-16,84,74,64,-100,-100,-100,0,0,100,0.00,40.00,0,-999,0,0.00
2013-7-17,84,74,68,-100,-100,-100,0,0,100,0.00,40.00,0,-999,0,0.00
2013-7-18,85,78,69,-100,-100,-100,0,0,100,0.00,40.00,0,-999,0,0.00
2013-7-19,87,79,70,-100,-100,-100,0,0,100,0.00,40.00,0,-999,0,0.00
2013-7-20,89,79,71,-100,-100,-100,0,0,100,0.00,40.00,0,-999,0,0.00
2013-7-21,82,74,69,-100,-100,-100,0,0,100,0.00,40.00,0,-999,0,0.00
2013-7-22,83,76,72,-100,-100,-100,0,0,100,0.00,40.00,0,-999,0,0.00
2013-7-23,83,76,74,-100,-100,-100,0,0,100,0.00,40.00,0,-999,0,0.00
2013-7-29,79,76,73,-100,-100,-100,0,0,100,0.00,40.00,0,-999,0,0.00
2013-7-30,75,71,68,-100,-100,-100,0,0,100,0.00,40.00,0,-999,0,0.00
2013-7-31,82,75,67,-100,-100,-100,0,0,100,0.00,40.00,0,-999,0,0.00
2013-8-1,83,75,66,-100,-100,-100,0,0,100,0.00,40.00,0,-999,0,0.00
2013-8-2,86,78,72,-100,-100,-100,0,0,100,0.00,40.00,0,-999,0,0.00
2013-8-3,82,77,71,-100,-100,-100,0,0,100,0.00,40.00,0,-999,0,0.00
2013-8-4,74,72,71,-100,-100,-100,0,0,100,0.00,40.00,0,-999,0,0.00
2013-8-5,86,76,70,-100,-100,-100,0,0,100,0.00,40.00,0,-999,0,0.00
2013-8-6,86,79,72,-100,-100,-100,0,0,100,0.00,40.00,0,-999,0,0.00
2013-8-7,84,78,69,-100,-100,-100,0,0,100,0.00,40.00,0,-999,0,0.00
2013-8-8,77,72,67,-100,-100,-100,0,0,100,0.00,40.00,0,-999,0,0.00
2013-8-9,71,68,62,-100,-100,-100,0,0,100,0.00,40.00,0,-999,0,0.00
2013-8-10,80,72,62,-100,-100,-100,0,0,100,0.00,40.00,0,-999,0,0.00
2013-8-11,81,74,65,-100,-100,-100,0,0,100,0.00,40.00,0,-999,0,0.00
2013-8-12,80,73,67,-100,-100,-100,0,0,100,0.00,40.00,0,-999,0,0.00
2013-8-13,80,71,67,-100,-100,-100,0,0,100,0.00,40.00,0,-999,0,0.00
2013-8-14,77,71,61,-100,-100,-100,0,0,100,0.00,40.00,0,-999,0,0.00
2013-8-15,77,69,62,-100,-100,-100,0,0,100,0.00,40.00,0,-999,0,0.00
2013-8-16,75,67,60,-100,-100,-100,0,0,100,0.00,40.00,0,-999,0,0.00
2013-8-17,75,68,59,-100,-100,-100,0,0,100,0.00,40.00,0,-999,0,0.00
2013-8-18,78,68,60,-100,-100,-100,0,0,100,0.00,40.00,0,-999,0,0.00
2013-8-19,81,71,65,-100,-100,-100,0,0,100,0.00,40.00,0,-999,0,0.00
2013-8-20,82,72,63,-100,-100,-100,0,0,100,0.00,40.00,0,-999,0,0.00
2013-8-21,78,69,64,-100,-100,-100,0,0,100,0.00,40.00,0,-999,0,0.00
2013-8-22,84,76,67,-100,-100,-100,0,0,100,0.00,40.00,0,-999,0,0.00
2013-8-23,86,76,68,-100,-100,-100,0,0,100,0.00,40.00,0,-999,0,0.00
2013-8-24,86,75,68,-100,-100,-100,0,0,100,0.00,40.00,0,-999,0,0.00
2013-8-25,84,76,68,-100,-100,-100,0,0,100,0.00,40.00,0,-999,0,0.00
2013-8-26,87,79,70,-100,-100,-100,0,0,100,0.00,40.00,0,-999,0,0.00
2013-8-27,87,76,68,-100,-100,-100,0,0,100,0.00,40.00,0,-999,0,0.00
2013-8-28,86,82,77,-100,-100,-100,0,0,100,0.00,40.00,0,-999,0,0.00
2013-8-29,90,78,70,-100,-100,-100,0,0,100,0.00,40.00,0,-999,0,0.00
2013-8-30,88,77,70,-100,-100,-100,0,0,100,0.00,40.00,0,-999,0,0.00
2013-8-31,84,77,70,-100,-100,-100,0,0,100,0.00,40.00,0,-999,0,0.00
2013-9-1,82,78,73,-100,-100,-100,0,0,100,0.00,40.00,0,-999,0,0.00
2013-9-2,82,75,60,-100,-100,-100,0,0,100,0.00,40.00,0,-999,0,0.00
2013-9-3,83,72,60,-100,-100,-100,0,0,100,0.00,40.00,0,-999,0,0.00
2013-9-4,85,72,60,-100,-100,-100,0,0,100,0.00,40.00,0,-999,0,0.00
2013-9-5,87,77,67,-100,-100,-100,0,0,100,0.00,40.00,0,-999,0,0.00
2013-9-6,90,79,70,-100,-100,-100,0,0,100,0.00,40.00,0,-999,0,0.00
2013-9-7,89,78,69,-100,-100,-100,0,0,100,0.00,40.00,0,-999,0,0.00
2013-9-8,91,78,70,-100,-100,-100,0,0,100,0.00,40.00,0,-999,0,0.00
2013-9-9,89,80,72,-100,-100,-100,0,0,100,0.00,40.00,0,-999,0,0.00
2013-9-10,88,80,69,-100,-100,-100,0,0,100,0.00,40.00,0,-999,0,0.00
2013-9-11,87,76,70,-100,-100,-100,0,0,100,0.00,40.00,0,-999,0,0.00
2013-9-12,81,74,72,-100,-100,-100,0,0,100,0.00,40.00,0,-999,0,0.00
2013-9-13,77,71,67,-100,-100,-100,0,0,100,0.00,40.00,0,-999,0,0.00
2013-9-14,81,72,61,-100,-100,-100,0,0,100,0.00,40.00,0,-999,0,0.00
2013-9-15,87,76,64,-100,-100,-100,0,0,100,0.00,40.00,0,-999,0,0.00
2013-9-16,74,68,65,-100,-100,-100,0,0,100,0.00,40.00,0,-999,0,0.00
2013-9-17,79,70,65,-100,-100,-100,0,0,100,0.00,40.00,0,-999,0,0.00
2013-9-18,70,69,68,-100,-100,-100,0,0,100,0.00,40.00,0,-999,0,0.00
2013-9-19,85,75,65,-100,-100,-100,0,0,100,0.00,40.00,0,-999,0,0.00
2013-9-20,71,65,60,-100,-100,-100,0,0,100,0.00,40.00,0,-999,0,0.00
2013-9-21,77,62,52,-100,-100,-100,0,0,100,0.00,40.00,0,-999,0,0.00
2013-9-22,75,65,54,-100,-100,-100,0,0,100,0.00,40.00,0,-999,0,0.00
2013-9-23,75,65,54,-100,-100,-100,0,0,100,0.00,40.00,0,-999,0,0.00
2013-9-24,74,66,56,-100,-100,-100,0,0,100,0.00,40.00,0,-999,0,0.00
2013-9-25,79,68,52,-100,-100,-100,0,0,100,0.00,40.00,0,-999,0,0.00
2013-9-26,86,73,63,-100,-100,-100,0,0,100,0.00,40.00,0,-999,0,0.00
2013-9-27,83,76,65,-100,-100,-100,0,0,100,0.00,40.00,0,-999,0,0.00
2013-9-28,74,63,53,-100,-100,-100,0,0,100,0.00,40.00,0,-999,0,0.00
2013-9-29,72,59,47,-100,-100,-100,0,0,100,0.00,40.00,0,-999,0,0.00
2013-9-30,75,64,51,-100,-100,-100,0,0,100,0.00,40.00,0,-999,0,0.00
2013-10-1,70,69,68,-100,-100,-100,0,0,100,0.00,40.00,0,-999,0,0.00
2013-10-2,79,71,64,-100,-100,-100,0,0,100,0.00,40.00,0,-999,0,0.00
2013-10-3,82,76,68,-100,-100,-100,0,0,100,0.00,40.00,0,-999,0,0.00
2013-10-4,82,71,56,-100,-100,-100,0,0,100,0.00,40.00,0,-999,0,0.00
2013-10-5,62,50,44,-100,-100,-100,0,0,100,0.00,40.00,0,-999,0,0.00
2013-10-6,66,54,45,-100,-100,-100,0,0,100,0.00,40.00,0,-999,0,0.00
2013-10-7,70,56,41,-100,-100,-100,0,0,100,0.00,40.00,0,-999,0,0.00
2013-10-8,74,62,46,-100,-100,-100,0,0,100,0.00,40.00,0,-999,0,0.00
2013-10-9,77,64,53,-100,-100,-100,0,0,100,0.00,40.00,0,-999,0,0.00
2013-10-10,78,65,56,-100,-100,-100,0,0,100,0.00,40.00,0,-999,0,0.00
2013-10-11,78,69,63,-100,-100,-100,0,0,100,0.00,40.00,0,-999,0,0.00
2013-10-12,70,60,53,-100,-100,-100,0,0,100,0.00,40.00,0,-999,0,0.00
2013-10-13,68,59,47,-100,-100,-100,0,0,100,0.00,40.00,0,-999,0,0.00
2013-10-14,63,61,56,-100,-100,-100,0,0,100,0.00,40.00,0,-999,0,0.00
2013-10-15,59,52,44,-100,-100,-100,0,0,100,0.00,40.00,0,-999,0,0.00
2013-10-16,53,45,37,-100,-100,-100,0,0,100,0.00,40.00,0,-999,0,0.00
2013-10-17,65,53,39,-100,-100,-100,0,0,100,0.00,40.00,0,-999,0,0.00
2013-10-18,49,38,31,-100,-100,-100,0,0,100,0.00,40.00,0,-999,0,0.00
2013-10-19,65,44,29,-100,-100,-100,0,0,100,0.00,40.00,0,-999,0,0.00
2013-10-20,69,55,37,-100,-100,-100,0,0,100,0.00,40.00,0,-999,0,0.00
2013-10-21,60,52,46,-100,-100,-100,0,0,100,0.00,40.00,0,-999,0,0.00
2013-10-22,68,55,43,-100,-100,-100,0,0,100,0.00,40.00,0,-999,0,0.00
2013-10-23,66,52,37,-100,-100,-100,0,0,100,0.00,40.00,0,-999,0,0.00
2013-10-24,53,47,39,-100,-100,-100,0,0,100,0.00,40.00,0,-999,0,0.00
2013-10-25,59,48,32,-100,-100,-100,0,0,100,0.00,40.00,0,-999,0,0.00
2013-10-26,63,53,44,-100,-100,-100,0,0,100,0.00,40.00,0,-999,0,0.00
2013-10-27,65,49,30,-100,-100,-100,0,0,100,0.00,40.00,0,-999,0,0.00
2013-10-28,65,55,44,-100,-100,-100,0,0,100,0.00,40.00,0,-999,0,0.00
2013-10-29,68,63,59,-100,-100,-100,0,0,100,0.00,40.00,0,-999,0,0.00
2013-10-30,70,61,52,-100,-100,-100,0,0,100,0.00,40.00,0,-999,0,0.00
2013-10-31,62,54,48,-100,-100,-100,0,0,100,0.00,40.00,0,-999,0,0.00
2013-11-1,61,51,42,-100,-100,-100,0,0,100,0.00,40.00,0,-999,0,0.00
2013-11-2,57,46,37,-100,-100,-100,0,0,100,0.00,40.00,0,-999,0,0.00
2013-11-3,62,54,41,-100,-100,-100,0,0,100,0.00,40.00,0,-999,0,0.00
2013-11-4,61,53,47,-100,-100,-100,0,0,100,0.00,40.00,0,-999,0,0.00
2013-11-5,60,54,40,-100,-100,-100,0,0,100,0.00,40.00,0,-999,0,0.00
2013-11-6,47,39,36,-100,-100,-100,0,0,100,0.00,40.00,0,-999,0,0.00
2013-11-7,59,44,30,-100,-100,-100,0,0,100,0.00,40.00,0,-999,0,0.00
2013-11-8,63,50,38,-100,-100,-100,0,0,100,0.00,40.00,0,-999,0,0.00
2013-11-9,63,50,39,-100,-100,-100,0,0,100,0.00,40.00,0,-999,0,0.00
2013-11-10,62,53,42,-100,-100,-100,0,0,100,0.00,40.00,0,-999,0,0.00
2013-11-11,56,47,27,-100,-100,-100,0,0,100,0.00,40.00,0,-999,0,0.00
2013-11-12,35,26,20,-100,-100,-100,0,0,100,0.00,40.00,0,-999,0,0.00
2013-11-13,48,31,19,-100,-100,-100,0,0,100,0.00,40.00,0,-999,0,0.00
2013-11-14,55,41,32,-100,-100,-100,0,0,100,0.00,40.00,0,-999,0,0.00
2013-11-15,60,47,34,-100,-100,-100,0,0,100,0.00,40.00,0,-999,0,0.00
2013-11-16,74,63,52,-100,-100,-100,0,0,100,0.00,40.00,0,-999,0,0.00
2013-11-17,65,56,47,-100,-100,-100,0,0,100,0.00,40.00,0,-999,0,0.00
2013-11-18,60,47,34,-100,-100,-100,0,0,100,0.00,40.00,0,-999,0,0.00
2013-11-19,60,50,42,-100,-100,-100,0,0,100,0.00,40.00,0,-999,0,0.00
2013-11-20,60,54,49,-100,-100,-100,0,0,100,0.00,40.00,0,-999,0,0.00
2013-11-21,53,37,24,-100,-100,-100,0,0,100,0.00,40.00,0,-999,0,0.00
2013-11-22,27,24,20,-100,-100,-100,0,0,100,0.00,40.00,0,-999,0,0.00
2013-11-23,32,28,22,-100,-100,-100,0,0,100,0.00,40.00,0,-999,0,0.00
2013-11-24,25,21,17,-100,-100,-100,0,0,100,0.00,40.00,0,-999,0,0.00
2013-11-25,33,27,24,-100,-100,-100,0,0,100,0.00,40.00,0,-999,0,0.00
2013-11-26,37,30,24,-100,-100,-100,0,0,100,0.00,40.00,0,-999,0,0.00
2013-11-27,36,24,13,-100,-100,-100,0,0,100,0.00,40.00,0,-999,0,0.00
2013-11-28,47,33,22,-100,-100,-100,0,0,100,0.00,40.00,0,-999,0,0.00
2013-11-29,53,39,23,-100,-100,-100,0,0,100,0.00,40.00,0,-999,0,0.00
2013-11-30,55,43,31,-100,-100,-100,0,0,100,0.00,40.00,0,-999,0,0.00
2013-12-1,59,40,27,-100,-100,-100,0,0,100,0.00,40.00,0,-999,0,0.00
2013-12-2,53,40,27,-100,-100,-100,0,0,100,0.00,40.00,0,-999,0,0.00
2013-12-3,56,41,32,-100,-100,-100,0,0,100,0.00,40.00,0,-999,0,0.00
2013-12-4,44,27,22,-100,-100,-100,0,0,100,0.00,40.00,0,-999,0,0.00
2013-12-5,18,15,14,-100,-100,-100,0,0,100,0.00,40.00,0,-999,0,0.00
2013-12-6,17,12,8,-100,-100,-100,0,0,100,0.00,40.00,0,-999,0,0.00
2013-12-7,20,12,5,-100,-100,-100,0,0,100,0.00,40.00,0,-999,0,0.00
2013-12-8,20,18,15,-100,-100,-100,0,0,100,0.00,40.00,0,-999,0,0.00
2013-12-9,17,13,7,-100,-100,-100,0,0,100,0.00,40.00,0,-999,0,0.00
2013-12-10,38,17,4,-100,-100,-100,0,0,100,0.00,40.00,0,-999,0,0.00
2013-12-11,31,22,13,-100,-100,-100,0,0,100,0.00,40.00,0,-999,0,0.00
2013-12-12,44,24,11,-100,-100,-100,0,0,100,0.00,40.00,0,-999,0,0.00
2013-12-13,42,36,27,-100,-100,-100,0,0,100,0.00,40.00,0,-999,0,0.00
2013-12-14,35,27,22,-100,-100,-100,0,0,100,0.00,40.00,0,-999,0,0.00
2013-12-15,57,34,18,-100,-100,-100,0,0,100,0.00,40.00,0,-999,0,0.00
2013-12-16,62,42,25,-100,-100,-100,0,0,100,0.00,40.00,0,-999,0,0.00
2013-12-17,54,40,22,-100,-100,-100,0,0,100,0.00,40.00,0,-999,0,0.00
2013-12-18,64,42,29,-100,-100,-100,0,0,100,0.00,40.00,0,-999,0,0.00
2013-12-19,60,50,40,-100,-100,-100,0,0,100,0.00,40.00,0,-999,0,0.00
2013-12-20,34,20,15,-100,-100,-100,0,0,100,0.00,40.00,0,-999,0,0.00
2013-12-21,25,22,20,-100,-100,-100,0,0,100,0.00,40.00,0,-999,0,0.00
2013-12-22,20,16,6,-100,-100,-100,0,0,100,0.00,40.00,0,-999,0,0.00
2013-12-23,15,10,5,-100,-100,-100,0,0,100,0.00,40.00,0,-999,0,0.00
2013-12-24,28,21,14,-100,-100,-100,0,0,100,0.00,40.00,0,-999,0,0.00
2013-12-25,36,30,27,-100,-100,-100,0,0,100,0.00,40.00,0,-999,0,0.00
2013-12-26,40,26,18,-100,-100,-100,0,0,100,0.00,40.00,0,-999,0,0.00
2013-12-27,46,32,18,-100,-100,-100,0,0,100,0.00,40.00,0,-999,0,0.00
2013-12-28,51,40,26,-100,-100,-100,0,0,100,0.00,40.00,0,-999,0,0.00
2013-12-29,37,18,10,-100,-100,-100,0,0,100,0.00,40.00,0,-999,0,0.00
2013-12-30,32,18,9,-100,-100,-100,0,0,100,0.00,40.00,0,-999,0,0.00
2013-12-31,50,31,18,-100,-100,-100,0,0,100,0.00,40.00,0,-999,0,0.00
2014-1-1,36,26,11,-100,-100,-100,0,0,100,0.00,40.00,0,-999,0,0.00
2014-1-2,27,16,4,-100,-100,-100,0,0,100,0.00,40.00,0,-999,0,0.00